Vorticity
-1 -3 12 16 5 23 6 2 2 -2 -1 5 5 3 3 3 3 4 4 5 5 6 4 3 2 2 3 4 4 4 5 4 5 6 6 8 10 7 2 1 1 3 -1
2 1 6 9 13 11 -4 20 2 4 4 2 3 4 4 4 5 4 4 5 6 6 5 5 4 3 3 6 5 5 5 4 5 3 7 7 8 8 6 2 1 7 5
6 11 7 7 13 5 7 9 4 2 4 5 4 4 6 5 5 5 6 6 6 7 8 7 6 7 7 5 5 6 5 6 4 4 4 6 10 8 6 8 5 3 12
6 8 6 7 9 12 10 6 2 3 4 4 4 4 5 5 5 6 6 6 6 5 7 8 8 8 9 9 6 7 8 5 6 5 5 5 4 12 9 3 4 5 8
7 11 7 6 10 3 1 1 3 7 6 5 5 5 5 6 7 8 7 7 8 9 9 9 9 9 11 10 9 11 8 8 5 6 6 5 4 4 13 9 3 3 3
10 5 5 6 5 11 8 7 7 7 6 6 6 7 7 8 7 8 9 9 7 6 6 6 7 7 7 8 8 7 9 8 7 6 4 5 4 8 5 12 10 8 3
7 5 5 4 4 8 9 5 5 6 6 7 9 9 9 9 9 8 6 5 4 3 3 3 3 4 4 5 4 3 5 5 7 10 10 10 5 3 12 7 9 11 6
7 3 4 5 7 9 9 7 9 9 9 9 8 8 9 7 5 4 3 2 2 2 2 2 2 1 1 1 0 1 2 4 -0 -0 4 9 11 5 10 7 5 6 11
5 5 5 7 7 7 9 10 10 9 9 9 7 9 8 4 2 2 2 2 3 4 5 6 7 8 8 9 9 8 6 3 6 3 2 2 5 4 0 9 13 4 5
7 6 6 6 7 7 8 9 9 9 10 11 10 7 4 0 1 2 5 7 7 8 7 7 5 3 3 3 3 3 3 4 4 6 9 6 4 4 2 4 -1 5 11
2 6 5 5 6 6 6 7 9 10 11 6 2 1 1 0 3 5 6 5 6 6 5 4 3 2 3 3 2 3 3 2 3 3 5 5 6 6 5 4 3 5 5
12 11 6 4 4 5 7 8 8 10 6 3 1 0 0 3 5 6 6 8 7 4 2 1 1 2 3 4 5 4 4 3 2 3 3 4 2 2 6 8 4 5 2
9 8 8 6 4 5 6 6 5 4 4 3 2 2 4 6 7 6 6 6 4 2 -0 -4 -0 2 4 6 6 5 5 6 2 1 2 4 5 0 3 5 6 7 6
7 9 8 5 4 5 4 5 5 5 5 5 7 7 7 6 5 4 4 4 4 4 2 1 0 3 4 4 3 3 4 4 3 1 0 2 4 3 1 2 5 6 5
7 7 6 4 4 3 3 5 5 5 4 4 5 5 3 3 3 4 4 4 2 2 2 3 2 4 1 3 3 1 1 3 6 4 3 1 1 2 1 2 5 5 6
7 7 6 4 4 6 7 7 5 3 3 4 4 4 3 3 4 3 2 2 2 2 3 4 6 7 5 5 4 5 3 3 5 9 3 2 2 0 1 -1 5 2 1
8 7 5 5 4 3 3 2 -1 1 3 4 4 2 2 2 2 3 4 5 5 5 5 5 4 5 6 8 11 14 14 14 16 17 9 1 -5 -0 2 3 -1 4 5
5 5 7 3 2 2 2 2 4 5 4 3 4 4 5 6 6 6 6 5 5 6 7 10 12 10 9 8 8 10 11 12 12 9 9 12 13 7 7 3 2 4 4
5 8 4 2 2 3 1 0 1 2 5 7 7 7 6 6 6 6 6 7 10 11 7 8 7 6 4 8 9 6 8 6 6 7 9 9 10 10 9 9 8 4 4
5 4 4 3 1 3 2 3 4 7 7 6 6 6 7 7 8 8 9 8 6 6 4 4 7 9 10 7 12 14 10 11 12 13 14 18 15 8 6 6 4 5 6
9 7 5 3 -1 3 2 4 7 4 5 6 8 8 6 5 6 6 5 6 6 9 11 15 14 15 12 10 11 17 34 35 35 40 51 50 36 25 20 10 3 5 5
6 3 2 1 2 3 4 6 5 4 5 6 4 3 5 6 8 9 8 14 14 13 14 11 11 13 8 15 33 39 23 38 28 9 -1 1 9 53 28 25 16 10 10
3 1 1 2 3 3 3 3 3 3 6 5 6 5 9 8 6 9 11 9 11 14 9 9 11 8 29 36 19 20 15 21 16 24 11 9 1 54 40 22 23 23 16
-1 -1 1 5 4 2 4 2 5 4 7 12 6 7 7 4 9 10 12 14 13 9 10 12 12 30 16 11 21 14 18 9 8 16 25 23 9 24 44 27 13 19 17
6 1 3 -0 3 5 5 4 4 8 13 5 6 6 3 9 12 16 14 9 10 12 15 19 26 10 22 25 17 18 19 14 19 28 21 23 17 13 29 36 26 18 21
0 4 4 7 4 7 6 6 7 10 8 3 3 4 13 13 16 13 11 11 12 14 17 16 8 3 27 24 10 8 19 15 22 22 23 15 19 17 20 21 25 25 23
Height
5873 5872 5870 5869 5868 5867 5869 5868 5865 5864 5863 5862 5861 5861 5861 5860 5860 5861 5861 5860 5859 5859 5858 5857 5856 5855 5855 5854 5854 5853 5852 5851 5850 5849 5849 5850 5850 5848 5847 5846 5846 5845 5844
5870 5869 5868 5867 5867 5865 5865 5865 5864 5863 5861 5860 5858 5858 5858 5857 5858 5857 5857 5856 5856 5855 5854 5853 5853 5853 5852 5851 5850 5850 5849 5848 5847 5846 5846 5845 5847 5846 5845 5844 5844 5843 5841
5866 5866 5865 5865 5864 5865 5863 5862 5862 5861 5858 5858 5858 5857 5855 5854 5853 5853 5853 5852 5851 5850 5850 5850 5849 5849 5848 5848 5847 5846 5845 5844 5843 5843 5843 5843 5842 5842 5842 5842 5841 5840 5838
5863 5862 5862 5862 5861 5862 5861 5860 5859 5857 5856 5854 5854 5852 5853 5851 5850 5849 5849 5848 5848 5847 5846 5845 5845 5845 5844 5843 5844 5843 5842 5841 5840 5839 5839 5839 5839 5839 5839 5839 5838 5838 5837
5859 5858 5858 5858 5857 5857 5858 5857 5857 5855 5853 5852 5850 5849 5848 5847 5846 5846 5846 5845 5845 5844 5842 5841 5842 5841 5840 5839 5839 5839 5838 5838 5837 5836 5836 5835 5835 5835 5836 5836 5835 5835 5835
5853 5855 5854 5853 5855 5854 5853 5853 5853 5853 5850 5848 5847 5845 5845 5844 5843 5842 5842 5841 5840 5839 5838 5838 5838 5837 5836 5836 5835 5835 5834 5834 5833 5832 5832 5832 5831 5831 5831 5832 5832 5832 5831
5850 5850 5851 5851 5852 5851 5849 5849 5849 5848 5846 5844 5843 5842 5842 5841 5840 5839 5838 5837 5836 5836 5835 5833 5833 5832 5832 5832 5831 5830 5831 5830 5830 5829 5828 5827 5827 5827 5827 5827 5827 5828 5828
5846 5846 5846 5847 5847 5845 5846 5845 5845 5844 5842 5841 5839 5839 5838 5838 5837 5836 5835 5835 5833 5832 5831 5830 5829 5828 5828 5828 5826 5826 5825 5825 5825 5825 5824 5823 5822 5822 5822 5821 5822 5823 5823
5842 5842 5842 5841 5841 5842 5841 5840 5840 5838 5837 5836 5835 5834 5834 5833 5833 5832 5831 5830 5829 5828 5827 5826 5825 5824 5824 5823 5822 5821 5820 5819 5820 5819 5818 5818 5818 5818 5817 5816 5817 5818 5818
5837 5836 5836 5837 5837 5837 5837 5835 5833 5833 5832 5831 5831 5830 5829 5829 5828 5827 5826 5825 5824 5823 5822 5821 5820 5819 5819 5818 5817 5816 5814 5813 5813 5814 5814 5813 5812 5812 5812 5811 5811 5811 5811
5835 5834 5833 5833 5832 5831 5830 5830 5829 5828 5828 5827 5827 5826 5825 5824 5823 5822 5820 5819 5818 5817 5816 5815 5814 5813 5812 5811 5810 5809 5808 5807 5806 5806 5807 5806 5805 5805 5805 5805 5805 5805 5805
5830 5829 5828 5827 5826 5826 5825 5825 5825 5824 5823 5822 5821 5821 5820 5818 5816 5815 5814 5813 5812 5811 5810 5808 5807 5806 5805 5804 5802 5802 5801 5800 5800 5798 5798 5799 5797 5798 5798 5797 5798 5799 5799
5822 5822 5821 5822 5821 5821 5820 5819 5819 5818 5817 5816 5815 5813 5811 5810 5808 5807 5806 5805 5804 5803 5802 5801 5799 5798 5797 5795 5793 5792 5791 5791 5790 5790 5789 5788 5788 5788 5789 5789 5790 5791 5792
5815 5815 5814 5814 5815 5814 5813 5813 5812 5812 5810 5809 5807 5805 5803 5801 5799 5798 5797 5795 5794 5792 5791 5790 5788 5787 5786 5785 5784 5782 5780 5779 5779 5779 5778 5777 5777 5776 5777 5779 5779 5781 5782
5809 5808 5808 5809 5808 5808 5807 5806 5806 5805 5804 5802 5800 5797 5795 5793 5791 5789 5787 5785 5783 5781 5780 5778 5776 5774 5772 5771 5770 5769 5768 5767 5766 5765 5766 5765 5764 5764 5763 5765 5769 5769 5772
5802 5802 5802 5802 5801 5801 5801 5800 5799 5798 5797 5795 5793 5790 5788 5785 5783 5780 5778 5775 5773 5771 5768 5766 5763 5761 5758 5756 5754 5752 5752 5751 5751 5750 5750 5750 5750 5749 5750 5750 5753 5757 5760
5795 5795 5795 5794 5794 5794 5794 5793 5792 5791 5789 5788 5785 5782 5779 5777 5774 5771 5768 5764 5761 5758 5754 5751 5748 5744 5742 5739 5737 5734 5731 5729 5729 5730 5732 5732 5733 5733 5733 5734 5736 5740 5745
5788 5787 5787 5787 5787 5787 5786 5785 5784 5782 5781 5778 5775 5772 5768 5765 5762 5758 5755 5751 5747 5743 5739 5735 5731 5728 5724 5721 5719 5715 5712 5709 5707 5705 5706 5708 5711 5714 5715 5715 5717 5720 5727
5780 5780 5779 5779 5778 5778 5777 5776 5774 5773 5771 5768 5765 5761 5757 5754 5750 5747 5742 5737 5733 5728 5723 5719 5714 5710 5706 5703 5699 5694 5690 5685 5682 5680 5680 5681 5685 5689 5693 5696 5698 5701 5706
5773 5773 5773 5772 5771 5770 5769 5768 5766 5764 5762 5759 5755 5751 5747 5743 5739 5733 5729 5723 5718 5712 5707 5701 5695 5689 5684 5682 5677 5670 5662 5656 5652 5649 5650 5652 5656 5661 5666 5672 5677 5681 5687
5765 5765 5765 5765 5765 5764 5762 5760 5757 5755 5752 5748 5744 5739 5735 5730 5725 5720 5715 5709 5702 5696 5691 5685 5678 5670 5661 5657 5652 5644 5634 5624 5618 5615 5616 5618 5621 5627 5636 5644 5652 5658 5666
5758 5758 5758 5757 5756 5754 5752 5750 5748 5744 5740 5736 5732 5727 5723 5718 5713 5707 5701 5694 5687 5678 5670 5665 5657 5650 5640 5632 5625 5618 5614 5604 5596 5596 5597 5598 5598 5598 5603 5612 5621 5632 5642
5749 5749 5749 5747 5745 5743 5741 5738 5735 5732 5729 5725 5720 5716 5711 5705 5698 5691 5684 5677 5671 5664 5657 5648 5640 5631 5622 5611 5605 5601 5596 5592 5587 5577 5581 5581 5581 5575 5577 5585 5596 5606 5617
5739 5740 5738 5737 5735 5733 5730 5727 5724 5721 5718 5713 5708 5702 5697 5691 5684 5677 5671 5665 5658 5650 5641 5632 5624 5616 5608 5600 5592 5586 5580 5576 5574 5566 5564 5562 5563 5560 5559 5568 5577 5587 5596
5731 5729 5728 5726 5724 5722 5720 5716 5713 5709 5706 5701 5696 5690 5684 5677 5672 5666 5660 5652 5644 5636 5627 5619 5612 5606 5596 5589 5582 5576 5569 5563 5558 5554 5550 5549 5548 5549 5548 5552 5560 5571 5580
5719 5718 5717 5714 5713 5711 5707 5704 5702 5699 5695 5690 5684 5678 5671 5666 5661 5655 5647 5640 5632 5625 5617 5610 5604 5596 5587 5579 5572 5566 5561 5555 5547 5543 5540 5539 5538 5539 5540 5543 5549 5557 5567